User: anonymous   Login
Location: *
(40.4270°N, 9.4940°E)
Time: 15:39:15
(UTC+01:00)
Language:

Okean 2 - Orbit

View from above orbital plane
View from above orbital plane
View from above satellite
View from above satellite

Ground track
Ground track

The orbit data is extracted from the following two-line orbital elements,

1 20510U 90018A   16344.50905117  .00000454  00000-0  35430-4 0  9994
2 20510  82.5150 353.5606 0010729 261.8650 258.4376 14.98766628453033
Epoch (UTC): 09 December 2016 12:13:02
Eccentricity: 0.0010729
inclination: 82.5150°
perigee height: 563 km
apogee height: 578 km
right ascension of ascending node: 353.5606°
argument of perigee: 261.8650°
revolutions per day: 14.98766628
mean anomaly at epoch: 258.4376°
orbit number at epoch: 45303

The dashed part of the orbit path shows where the satellite is in the earth's shadow,  

DLR